Location: Devargunta
(16.7631°N, 80.9077°E)
Time: 16:29:30
(UTC+00:00)

CSL-04 Rocket - Pass Details

Date: 19 January 2021
Orbit: 806 x 860 km, 98.9° (Epoch: 26 February)

Event Time Altitude Azimuth Distance (km) Brightness Sun altitude
Rises 13:35:33 0° 152° (SSE) 3,322 6.7 -16.7°
Reaches altitude 10° 13:37:58 10° 145° (SE) 2,397 5.9 -17.3°
Maximum altitude 13:42:58 43° 75° (ENE) 1,140 3.9 -18.4°
Drops below altitude 10° 13:48:01 10° 5° (N) 2,431 5.9 -19.6°
Sets 13:50:29 0° 358° (N) 3,374 6.7 -20.2°
